SKYNET 5C (33055 NORAD) Tracking and Keplerian Element Data

This shows tracking and keplerian element data for the satellite.

Feedback or suggestion? Click here.




ElementValue
Catalog33055
NameSKYNET 5C
Epoch Orbit6095
Epoch Day34.75151441
Epoch Year2025
RAAN82.9183
Inclination2.5056
Eccentricity0.0005288
Argument of Perigee237.7004
Mean Anonmoly66.2632
Mean Motion1.00270711
Decay Rate-1.37E-06
L11 33055U 08030A 25034.75151441 -.00000137 00000+0 00000+0 0 9999
L22 33055 2.5056 82.9183 0005288 237.7004 66.2632 1.00270711 60957



Live tracking and technical data element details for SKYNET 5C (NORAD 33055). SKYNET 5C can be tracked NOW for your location showing map with azimuth and elevation plus other details from your city location.







IsCatalogInMostPopularTable: catalog: 33055, numindb: 464
Update: records affected: 1



GetName: 33055 SKYNET 5C

Hit Count: updated at: Sat, 24 May 2025 16:23:16 GMT